TimeCDT,TemperatureF,Dew PointF,Humidity,Sea Level PressureIn,VisibilityMPH,Wind Direction,Wind SpeedMPH,Gust SpeedMPH,PrecipitationIn,Events,Conditions,WindDirDegrees,DateUTC
12:12 AM,44.6,37.4,76,29.90,10.0,WSW,9.2,-,N/A,,Clear,250,2013-10-26 05:12:00
12:33 AM,46.4,37.4,71,29.91,10.0,West,11.5,-,N/A,,Clear,270,2013-10-26 05:33:00
12:52 AM,44.6,37.4,76,29.91,10.0,WNW,12.7,-,N/A,,Clear,290,2013-10-26 05:52:00
1:12 AM,46.4,35.6,66,29.91,10.0,NW,15.0,-,N/A,,Clear,310,2013-10-26 06:12:00
1:33 AM,46.4,35.6,66,29.92,10.0,NW,15.0,19.6,N/A,,Clear,310,2013-10-26 06:33:00
1:52 AM,46.4,33.8,62,29.93,10.0,NW,18.4,21.9,N/A,,Clear,320,2013-10-26 06:52:00
2:12 AM,46.4,32.0,57,29.93,10.0,NW,17.3,28.8,N/A,,Clear,320,2013-10-26 07:12:00
2:33 AM,44.6,32.0,61,29.94,10.0,NW,18.4,-,N/A,,Clear,320,2013-10-26 07:33:00
2:52 AM,44.6,33.8,66,29.95,10.0,NW,17.3,20.7,N/A,,Clear,320,2013-10-26 07:52:00
3:12 AM,42.8,33.8,70,29.96,10.0,NW,21.9,25.3,N/A,,Clear,320,2013-10-26 08:12:00
3:33 AM,41.0,33.8,76,29.97,10.0,NW,16.1,-,N/A,,Clear,310,2013-10-26 08:33:00
3:52 AM,41.0,30.2,65,29.98,10.0,NW,15.0,-,N/A,,Clear,310,2013-10-26 08:52:00
4:13 AM,39.2,30.2,70,29.98,10.0,NW,13.8,-,N/A,,Clear,310,2013-10-26 09:13:00
4:32 AM,37.4,30.2,75,29.99,10.0,NW,15.0,-,N/A,,Clear,310,2013-10-26 09:32:00
4:52 AM,37.4,28.4,70,30.00,10.0,NW,12.7,-,N/A,,Clear,310,2013-10-26 09:52:00
5:13 AM,37.4,28.4,70,30.02,10.0,NW,16.1,19.6,N/A,,Clear,310,2013-10-26 10:13:00
5:33 AM,35.6,28.4,75,30.03,10.0,NW,16.1,21.9,N/A,,Clear,310,2013-10-26 10:33:00
5:52 AM,35.6,28.4,75,30.04,10.0,NW,18.4,24.2,N/A,,Clear,310,2013-10-26 10:52:00
6:13 AM,35.6,28.4,75,30.05,10.0,NW,18.4,24.2,N/A,,Clear,320,2013-10-26 11:13:00
6:32 AM,35.6,28.4,75,30.06,10.0,NW,16.1,24.2,N/A,,Clear,320,2013-10-26 11:32:00
6:52 AM,35.6,28.4,75,30.06,10.0,NW,15.0,-,N/A,,Clear,320,2013-10-26 11:52:00
7:13 AM,35.6,28.4,75,30.07,10.0,NW,13.8,-,N/A,,Clear,320,2013-10-26 12:13:00
7:32 AM,35.6,28.4,75,30.07,10.0,NW,11.5,-,N/A,,Clear,310,2013-10-26 12:32:00
7:52 AM,35.6,28.4,75,30.08,10.0,WNW,12.7,-,N/A,,Clear,300,2013-10-26 12:52:00
8:13 AM,35.6,28.4,75,30.09,10.0,WNW,13.8,18.4,N/A,,Clear,300,2013-10-26 13:13:00
8:32 AM,35.6,28.4,75,30.10,10.0,WNW,11.5,-,N/A,,Clear,300,2013-10-26 13:32:00
8:53 AM,37.4,28.4,70,30.11,10.0,WNW,15.0,-,N/A,,Clear,290,2013-10-26 13:53:00
9:12 AM,37.4,28.4,70,30.12,10.0,NW,15.0,23.0,N/A,,Clear,310,2013-10-26 14:12:00
9:32 AM,39.2,28.4,65,30.12,10.0,NW,21.9,27.6,N/A,,Clear,320,2013-10-26 14:32:00
9:53 AM,39.2,28.4,65,30.13,10.0,NW,19.6,25.3,N/A,,Clear,310,2013-10-26 14:53:00
10:12 AM,39.2,28.4,65,30.13,10.0,NW,18.4,24.2,N/A,,Clear,310,2013-10-26 15:12:00
10:33 AM,41.0,28.4,61,30.14,10.0,NW,20.7,25.3,N/A,,Clear,320,2013-10-26 15:33:00
10:53 AM,41.0,26.6,57,30.14,10.0,NW,18.4,25.3,N/A,,Clear,320,2013-10-26 15:53:00
11:12 AM,42.8,28.4,57,30.14,10.0,NW,19.6,25.3,N/A,,Clear,310,2013-10-26 16:12:00
11:33 AM,42.8,28.4,57,30.15,10.0,NW,19.6,25.3,N/A,,Clear,320,2013-10-26 16:33:00
11:53 AM,44.6,28.4,53,30.16,10.0,NNW,20.7,27.6,N/A,,Clear,330,2013-10-26 16:53:00
12:12 PM,44.6,26.6,49,30.16,10.0,NW,24.2,28.8,N/A,,Clear,320,2013-10-26 17:12:00
12:33 PM,44.6,26.6,49,30.16,10.0,NW,19.6,28.8,N/A,,Clear,310,2013-10-26 17:33:00
12:53 PM,44.6,26.6,49,30.15,10.0,NW,25.3,29.9,N/A,,Clear,310,2013-10-26 17:53:00
1:12 PM,46.4,26.6,46,30.15,10.0,NW,18.4,27.6,N/A,,Clear,310,2013-10-26 18:12:00
1:32 PM,46.4,26.6,46,30.15,10.0,WNW,19.6,26.5,N/A,,Clear,300,2013-10-26 18:32:00
1:53 PM,46.4,26.6,46,30.14,10.0,NW,19.6,25.3,N/A,,Clear,310,2013-10-26 18:53:00
2:12 PM,46.4,24.8,43,30.15,10.0,NW,20.7,26.5,N/A,,Clear,320,2013-10-26 19:12:00
2:32 PM,46.4,26.6,46,30.15,10.0,NW,16.1,27.6,N/A,,Clear,320,2013-10-26 19:32:00
2:53 PM,46.4,26.6,46,30.13,10.0,WNW,16.1,25.3,N/A,,Clear,290,2013-10-26 19:53:00
3:12 PM,46.4,26.6,46,30.14,10.0,NW,17.3,24.2,N/A,,Clear,320,2013-10-26 20:12:00
3:32 PM,46.4,26.6,46,30.14,10.0,NW,17.3,23.0,N/A,,Clear,310,2013-10-26 20:32:00
3:53 PM,46.4,26.6,46,30.14,10.0,NW,17.3,23.0,N/A,,Clear,310,2013-10-26 20:53:00
4:12 PM,46.4,26.6,46,30.14,10.0,WNW,16.1,23.0,N/A,,Clear,300,2013-10-26 21:12:00
4:32 PM,44.6,26.6,49,30.14,10.0,NW,13.8,20.7,N/A,,Clear,320,2013-10-26 21:32:00
4:53 PM,44.6,26.6,49,30.14,10.0,NW,16.1,21.9,N/A,,Clear,310,2013-10-26 21:53:00
5:12 PM,44.6,26.6,49,30.13,10.0,NW,12.7,-,N/A,,Clear,320,2013-10-26 22:12:00
5:32 PM,42.8,26.6,53,30.13,10.0,NW,10.4,-,N/A,,Clear,310,2013-10-26 22:32:00
5:53 PM,42.8,26.6,53,30.12,10.0,NW,9.2,-,N/A,,Clear,320,2013-10-26 22:53:00
6:12 PM,41.0,26.6,57,30.13,10.0,NW,6.9,-,N/A,,Clear,320,2013-10-26 23:12:00
6:32 PM,37.4,26.6,65,30.12,10.0,NW,4.6,-,N/A,,Clear,320,2013-10-26 23:32:00
6:53 PM,37.4,26.6,65,30.12,10.0,NW,4.6,-,N/A,,Clear,320,2013-10-26 23:53:00
7:12 PM,35.6,26.6,70,30.12,10.0,NW,3.5,-,N/A,,Clear,310,2013-10-27 00:12:00
7:32 PM,35.6,26.6,70,30.12,10.0,West,3.5,-,N/A,,Clear,280,2013-10-27 00:32:00
7:53 PM,33.8,24.8,70,30.11,10.0,Calm,Calm,-,N/A,,Clear,0,2013-10-27 00:53:00
8:12 PM,33.8,24.8,70,30.11,10.0,Calm,Calm,-,N/A,,Clear,0,2013-10-27 01:12:00
8:32 PM,32.0,24.8,75,30.12,10.0,West,3.5,-,N/A,,Clear,280,2013-10-27 01:32:00
8:53 PM,28.4,24.8,86,30.12,10.0,WNW,3.5,-,N/A,,Clear,290,2013-10-27 01:53:00
9:12 PM,28.4,24.8,86,30.12,10.0,SW,3.5,-,N/A,,Clear,230,2013-10-27 02:12:00
9:32 PM,30.2,26.6,86,30.10,10.0,Calm,Calm,-,N/A,,Clear,0,2013-10-27 02:32:00
9:53 PM,30.2,24.8,80,30.09,10.0,Calm,Calm,-,N/A,,Clear,0,2013-10-27 02:53:00
10:12 PM,28.4,24.8,86,30.10,10.0,Calm,Calm,-,N/A,,Clear,0,2013-10-27 03:12:00
10:32 PM,26.6,23.0,86,30.09,10.0,South,3.5,-,N/A,,Clear,190,2013-10-27 03:32:00
10:53 PM,30.2,26.6,86,30.08,10.0,Calm,Calm,-,N/A,,Clear,0,2013-10-27 03:53:00
11:12 PM,26.6,23.0,86,30.08,10.0,Calm,Calm,-,N/A,,Clear,0,2013-10-27 04:12:00
11:32 PM,26.6,24.8,93,30.07,10.0,Calm,Calm,-,N/A,,Clear,0,2013-10-27 04:32:00
11:52 PM,26.6,23.0,86,30.07,10.0,Calm,Calm,-,N/A,,Clear,0,2013-10-27 04:52:00